www.pogodaiklimat.ru

Погода и климат >> Архив погоды >> Австралия >> Charleville Aero


ПОГОДА в Charleville Aero

  • Прогноз погоды в Charleville Aero
  • Монитор погоды в Charleville Aero
  • Климат города

АРХИВ ПОГОДЫ в Charleville Aero

Время (UTC), дата Ветер
(напр.,м/с)
 
Видим.   Явления Облачность Т
(С)
Тd
(С)
f
(%)
Тe
(С)
Тes
(С)
Комфортность P
(гПа)
Po
(гПа)
Тmin
(С)
Tmax
(С)
R
(мм)
R24
(мм)
S
(см)
11 22.04 В 4 н/о н/о +25.1 +8.1 34 +25 +25 комфорт 1019.6 984.6
12 22.04 В 5 н/о н/о +24.9 +7.5 33 +25 +25 комфорт 1019.7 984.7
14 22.04 СВ 2 н/о 4/0
[]
+23.2 +8.1 38 +24 +24 комфорт 1019.4 984.4 +30.1
15 22.04 В 2 н/о н/о +21.8 +8.0 41 +23 +23 комфорт 1019.0 984.0
17 22.04 штиль 0 н/о н/о +18.6 +8.3 51 +19 +19 1018.5 983.5
18 22.04 штиль 0 н/о н/о +19.3 +8.9 51 +20 +20 1018.4 983.4
20 22.04 СВ 3 н/о 10/0
[]
+19.1 +9.3 53 +20 +20 1019.3 984.3
21 22.04 СВ 3 н/о н/о +18.1 +9.2 56 +18 +18 1020.0 985.0
23 22.04 С 5 н/о 9/0
[]
+22.5 +11.6 50 +25 +26 комфорт 1021.0 986.0
00 23.04 С 4 н/о н/о +23.7 +11.1 45 +25 +25 комфорт 1021.0 986.0
02 23.04 СВ 2 н/о 9/0
[]
+26.9 +11.0 37 +28 +35 жарко 1019.1 984.1 +18.2
03 23.04 В 2 н/о н/о +27.6 +10.8 35 +28 +28 жарко 1018.0 983.1
05 23.04 ЮЗ 3 н/о 10/0
[]
+27.0 +9.8 34 +27 +30 жарко 1017.2 982.3
06 23.04 Ю 3 н/о н/о +27.1 +9.9 34 +28 +28 жарко 1017.2 982.3
08 23.04 ЮВ 4 н/о 5/0
[]
+25.7 +10.3 38 +27 +27 жарко 1017.8 982.9
09 23.04 ЮВ 4 н/о н/о +24.7 +10.9 42 +26 +26 жарко 1018.5 983.5
11 23.04 ЮВ 4 н/о 9/0 2000 м
[]
+23.1 +11.8 49 +26 +26 жарко 1019.8 984.8
12 23.04 ЮВ 4 н/о н/о +22.8 +11.8 50 +25 +25 комфорт 1019.7 984.7
14 23.04 ЮВ 1 н/о н/о +18.6 +11.2 62 +21 +21 комфорт 1018.9 983.9 +27.9
15 23.04 В 2 н/о н/о +17.3 +11.1 67 +18 +18 1018.2 983.3
17 23.04 СВ 1 н/о н/о +16.1 +10.8 71 +17 +17 1017.2 982.3
18 23.04 штиль 0 н/о н/о +15.4 +10.6 73 +15 +15 1017.3 982.4
20 23.04 штиль 0 н/о н/о +15.0 +10.2 73 +15 +15 1017.9 983.0
21 23.04 штиль 0 н/о н/о +16.2 +10.9 71 +16 +16 1018.5 983.5
23 23.04 С 4 н/о н/о +23.0 +11.1 47 +25 +25 комфорт 1019.5 984.5
00 24.04 С 3 н/о н/о +25.7 +11.1 40 +27 +27 жарко 1019.3 984.3
02 24.04 ЮЗ 2 н/о н/о +28.4 +10.1 32 +29 +29 жарко 1017.3 982.4 +14.8
03 24.04 С 2 н/о н/о +29.1 +9.8 30 +29 +29 жарко 1016.2 981.3
05 24.04 СЗ 3 н/о н/о +30.1 +9.1 27 +30 +30 жарко 1014.6 979.8
06 24.04 С 4 н/о н/о +30.0 +8.4 26 +29 +29 жарко 1014.2 979.4
08 24.04 штиль 0 н/о 5/0
[]
+27.5 +7.9 29 +27 +27 жарко 1014.8 980.0
09 24.04 СВ 1 н/о н/о +25.8 +7.9 32 +26 +26 жарко 1015.4 980.5
11 24.04 В 2 н/о ясно +24.6 +8.5 36 +25 +25 комфорт 1016.0 981.1
12 24.04 СВ 4 н/о н/о +24.9 +8.4 35 +25 +25 комфорт 1015.9 981.0
14 24.04 С 5 н/о 8/0
[]
+24.4 +10.3 41 +25 +25 комфорт 1015.6 980.7 +31.1
15 24.04 С 5 н/о н/о +24.0 +10.7 43 +25 +25 комфорт 1015.0 980.2
17 24.04 С 5 н/о н/о +22.2 +11.3 50 +24 +24 комфорт 1014.4 979.6
18 24.04 С 3 н/о н/о +22.1 +11.5 51 +24 +24 комфорт 1014.5 979.7
20 24.04 С 4 н/о н/о +21.8 +12.1 54 +24 +24 комфорт 1015.2 980.4
21 24.04 С 4 н/о н/о +22.0 +12.0 53 +24 +24 комфорт 1015.9 981.0
23 24.04 С 6 н/о н/о +24.7 +12.0 45 +26 +26 жарко 1016.6 981.7
00 25.04 С 7 н/о н/о +26.9 +11.4 38 +28 +28 жарко 1016.5 981.6
02 25.04 С 6 н/о н/о +30.3 +10.8 30 +30 +30 жарко 1014.3 979.5 +21.5
03 25.04 З 5 н/о н/о +30.7 +9.6 27 +30 +30 жарко 1012.7 977.9
05 25.04 СЗ 4 н/о 4/0 2000 м
[]
+32.2 +9.7 25 +32 +35 жарко 1011.0 976.3
06 25.04 СЗ 5 н/о н/о +31.2 +8.8 25 +30 +30 жарко 1010.8 976.1
08 25.04 ЮВ 3 н/о ясно +28.2 +10.9 34 +29 +29 жарко 1011.0 976.3
09 25.04 В 2 н/о н/о +26.2 +11.5 40 +27 +27 жарко 1011.4 976.7
11 25.04 ЮЗ 9 4000 м туман 10/0 2000 м
[]
+21.6 +15.4 68 +25 +25 комфорт 1013.7 978.9
12 25.04 ЮВ 4 н/о н/о +19.6 +17.4 87 +22 +22 комфорт 1013.4 978.6
14 25.04 СВ 3 н/о {туман} 8/0
[]
+20.6 +17.4 82 +25 +25 комфорт 1012.8 978.0 +33.0
15 25.04 СВ 3 н/о н/о +20.9 +17.3 80 +25 +25 комфорт 1011.5 976.8
17 25.04 Ю 2 н/о {туман} 9/0
[]
+19.9 +17.5 86 +23 +23 комфорт 1011.7 977.0
18 25.04 ЮЗ 5 н/о н/о +19.5 +17.8 90 +22 +22 комфорт 1012.9 978.1
20 25.04 ЮЗ 1 н/о туман местами 9/9 100 м
[]
+19.2 +17.9 92 +22 +22 комфорт 1013.0 978.2
21 25.04 штиль 0 н/о н/о +19.2 +17.9 92 +21 +21 комфорт 1013.5 978.7
23 25.04 ЮЗ 2 н/о в посл. час дождь {туман} 10/10 100 м
[]
+19.3 +17.6 90 +22 +22 комфорт 1014.9 980.1
00 26.04 З 3 н/о н/о +19.4 +17.5 89 +22 +22 комфорт 1015.0 980.2
02 26.04 ЮЗ 5 н/о {туман} 5/5 600 м
[]
+21.8 +15.6 68 +25 +29 комфорт 1014.2 979.4 +19.1
03 26.04 З 5 н/о н/о +22.3 +14.7 62 +26 +26 жарко 1013.2 978.4
05 26.04 ЮЗ 5 н/о {туман} 3/3 1000 м
[]
+24.0 +12.3 48 +26 +28 жарко 1011.9 977.2
06 26.04 ЮЗ 5 н/о н/о +24.7 +10.2 40 +26 +26 жарко 1011.9 977.2
08 26.04 ЮЗ 4 н/о ясно +21.8 +8.3 42 +23 +23 комфорт 1013.1 978.3
09 26.04 ЮЗ 3 н/о н/о +20.2 +9.2 49 +22 +22 комфорт 1014.3 979.5
11 26.04 ЮЗ 3 н/о н/о +17.6 +8.2 54 +18 +18 1016.0 981.1
12 26.04 Ю 4 н/о н/о +17.3 +7.6 53 +17 +17 1016.5 981.6
14 26.04 Ю 4 н/о н/о +15.5 +8.0 61 +15 +15 1017.3 982.4 +25.7
15 26.04 Ю 4 н/о н/о +14.2 +7.7 65 +13 +13 1017.5 982.6
17 26.04 Ю 3 н/о н/о +11.6 +3.9 59 +10 +10 1017.1 982.2
18 26.04 Ю 3 н/о н/о +10.6 +3.6 62 +9 +9 1017.1 982.2
20 26.04 Ю 3 н/о н/о +8.8 +3.4 69 +6 +6 1018.0 983.1
21 26.04 Ю 3 н/о н/о +8.3 +3.8 73 +6 +6 1018.9 983.9
23 26.04 Ю 7 н/о н/о +13.0 +3.1 51 +11 +11 1020.5 985.5
00 27.04 Ю 7 н/о н/о +14.3 +1.9 43 +12 +12 1020.5 985.5
02 27.04 ЮЗ 5 н/о н/о +16.3 +1.2 36 +16 +16 1019.1 984.1 +8.0
03 27.04 Ю 7 н/о н/о +16.8 +0.5 33 +16 +16 1018.5 983.5
05 27.04 Ю 5 н/о н/о +17.8 -0.5 29 +17 +17 1018.0 983.1
06 27.04 ЮЗ 5 н/о н/о +17.9 -0.8 28 +18 +18 1017.6 982.7
08 27.04 Ю 3 н/о н/о +15.5 -2.0 30 +15 +15 1018.7 983.7
09 27.04 Ю 3 н/о н/о +13.8 -1.4 35 +13 +13 1019.4 984.4
11 27.04 Ю 3 н/о н/о +11.7 -0.4 43 +11 +11 1020.6 985.6
12 27.04 ЮЗ 3 н/о н/о +10.0 +0.3 51 +9 +9 1021.3 986.2
14 27.04 Ю 2 н/о н/о +7.1 +1.0 65 +5 +5 1021.0 986.0 +18.8
15 27.04 Ю 3 н/о н/о +7.0 +1.5 68 +5 +5 1020.6 985.6
17 27.04 Ю 2 н/о н/о +7.3 +1.0 64 +5 +5 1019.9 984.9
18 27.04 Ю 2 н/о н/о +6.7 +0.6 65 +5 +5 1020.2 985.2
20 27.04 Ю 2 н/о н/о +4.6 +0.6 75 +3 +3 1020.9 985.9
21 27.04 Ю 1 н/о н/о +4.2 +0.9 79 +4 +4 1021.5 986.4
23 27.04 Ю 7 н/о н/о +12.1 +2.0 50 +10 +10 1022.4 987.3
00 28.04 Ю 8 н/о н/о +14.6 +0.8 39 +13 +13 1022.4 987.3
02 28.04 Ю 5 н/о н/о +16.3 +0.8 35 +15 +15 1020.6 985.6 +4.0
03 28.04 ЮВ 7 н/о н/о +16.9 +0.1 32 +16 +16 1019.6 984.6
05 28.04 Ю 7 н/о н/о +18.9 0.0 28 +18 +18 1018.6 983.6
06 28.04 Ю 6 н/о н/о +18.7 -0.2 28 +18 +18 1018.7 983.7
08 28.04 Ю 4 н/о н/о +16.6 +0.3 33 +16 +16 1019.1 984.1
09 28.04 Ю 4 н/о н/о +15.2 +1.7 40 +15 +15 1019.9 984.9
11 28.04 Ю 2 н/о н/о +10.9 +2.2 55 +10 +10 1020.5 985.5
12 28.04 Ю 2 н/о н/о +9.6 +2.5 61 +8 +8 1020.6 985.6
14 28.04 штиль 0 н/о н/о +8.2 +2.9 69 +8 +8 1020.0 985.0 +19.6
15 28.04 Ю 2 н/о н/о +7.7 +3.0 72 +6 +6 1019.8 984.8
17 28.04 штиль 0 н/о н/о +6.6 +3.2 79 +6 +6 1019.7 984.7
18 28.04 ЮЗ 2 н/о н/о +6.3 +2.9 79 +5 +5 1019.5 984.5
20 28.04 штиль 0 н/о н/о +5.7 +2.9 82 +5 +5 1020.5 985.5
21 28.04 штиль 0 н/о н/о +5.6 +2.9 83 +5 +5 1021.4 986.3
23 28.04 ЮВ 5 н/о н/о +16.1 +3.5 43 +15 +15 1022.0 986.9
00 29.04 ЮВ 5 н/о н/о +18.8 +2.6 34 +19 +19 1021.8 986.7
02 29.04 ЮВ 5 н/о н/о +22.0 +4.6 32 +22 +22 комфорт 1020.3 985.3 +5.4
03 29.04 В 5 н/о н/о +23.1 +4.6 30 +23 +23 комфорт 1018.8 983.8
05 29.04 Ю 4 н/о н/о +24.6 +4.4 27 +24 +24 комфорт 1017.7 982.8
06 29.04 ЮВ 6 н/о н/о +24.8 +4.5 27 +24 +24 комфорт 1017.6 982.7
08 29.04 Ю 4 н/о н/о +21.6 +4.2 32 +22 +22 комфорт 1018.5 983.5
09 29.04 Ю 3 н/о н/о +19.0 +4.7 39 +20 +20 1018.8 983.8

 

Местоположение метеостанции Charleville Aero (Квинсленд, Австралия): широта -26.41 долгота 146.26 высота над уровнем моря 303 м.

В архиве по умолчанию представлена погода в Charleville Aero за последнюю неделю. Архивные данные за месяц целиком и за предыдущие месяцы, начиная с января 2011 года, Вы можете получить, выбрав интересующий диапазон дат из раскрывающегося списка и нажав кнопку "Ввод!".

Внимание! Время в таблицах - всемирное. Для получения местного времени необходимо прибавить поправку, которая в Charleville Aero равна 10 ч.

Смотрите также архив погоды в соседних городах и на ближайших метеорологических станциях:

Погода в Blackall Airport (Квинсленд, Австралия) (237 км)
Погода в Roma Airport (Квинсленд, Австралия) (251 км)
Погода в St George Airport (Квинсленд, Австралия) (295 км)
Погода в Thargomindah Airport (Квинсленд, Австралия) (299 км)
Погода в Lochington (Квинсленд, Австралия) (304 км)
Погода в Rolleston Airport (Квинсленд, Австралия) (321 км)
Погода в Emerald Airport (Квинсленд, Австралия) (371 км)
Погода в Longreach Airport (Квинсленд, Австралия) (387 км)
Погода в Miles Constance Street (Квинсленд, Австралия) (391 км)
Погода в Bourke Airport Aws (Новый Южный Уэльс, Австралия) (404 км)

Пояснения к столбцам:

Ветер - указаны скорость ветра в м/с - средняя за 10 мин, порывы в срок и между сроками (в фигурных скобках) и направление, откуда дует ветер: С - северный, СВ - северо-восточный, В - восточный, ЮВ - юго-восточный, Ю - южный, ЮЗ - юго-западный, З - западный, СЗ - северо-западный.
Видимость - горизонтальная дальность видимости в метрах или километрах. При видимости от 1 до 10 км при отсутствии осадков обычно наблюдается дымка, при ухудшении видимости до 1 км и менее - туман. В сухую погоду видимость может ухудшаться дымом, пылью или мглою.
Явления - указаны атмосферные явления, наблюдавшиеся в срок или в последний час перед сроком; фигурными скобками обозначены явления, наблюдавшиеся между сроками (за 1-3 часа до срока); квадратными скобками обозначены град или гололедные отложения с указанием их диаметра в мм.
Облачность - указаны через наклонную черту общая и нижняя облачность в баллах и высота нижней границы облаков в метрах; квадратными скобками обозначены формы облаков: Ci - перистые, Cs - перисто-слоистые, Cc - перисто-кучевые, Ac - высококучевые, As - высокослоистые, Sc - слоисто-кучевые, Ns - слоисто-дождевые, Cu - кучевые, Cb - кучево-дождевые. Подробнее классификацию облаков см. в Атласе облаков (PDF).
T - Температура воздуха - температура, измеренная на высоте 2 м над землей.
Td - Температура точки росы - температура, при понижении до которой содержащийся в воздухе водяной пар достигнет насыщения.
f - Относительная влажность воздуха - влажноcть воздуха, измеренная на высоте 2 м над землей.
Te - Эффективная температура - температура, которую ощущает одетый по сезону человек в тени. Характеристика душности погоды. При расчете учитывается влияние влажности воздуха и скорости ветра на теплоощущения человека.
Tes - Эффективная температура на солнце - температура, которую ощущает человек, с поправкой на солнечный нагрев. Характеристика знойности погоды. Зависит от высоты солнца над горизонтом, облачности и скорости ветра. Ночью, в пасмурную погоду, а также при ветре 12 м/с и более поправка равна нулю.
P - Атмосферное давление - приведенное к уровню моря атмосферное давление.
Po - Атмосферное давление - измеренное на уровне метеостанции атмосферное давление.
Tmin - Минимальная температура - минимум температуры воздуха на высоте 2 м над землей.
Tmax - Максимальная температура - максимум температуры воздуха на высоте 2 м над землей.
R - Количество осадков - Количество выпавших осадков за период времени, мм. При наведении курсора мыши на число - период времени, за который выпало указанное количество осадков.
R24 - Количество осадков - Количество выпавших осадков за 24 часа, мм.
S - Снежный покров - Высота снежного покрова, см. При наведении курсора мыши на число - состояние снежного покрова и степень покрытия местности в баллах.